Lunenburg, Nouvelle Écosse

Conditions des dernières 24 heures

Date / Heure
(HNA)
Conditions Temp
(°C)
Humidité
(%)
Point de rosée
(°C)
Vent
(km/h)
Pression
(kPa)
Visibilité
(km)
24 novembre 2014
18:00 N.D. 12   97 12 S 44 rafale 54 101,2 N.D.
17:00 N.D. 12   95 11 S 45 rafale 57 101,3 N.D.
16:00 N.D. 11 93 10 S 43 rafale 53 101,5 N.D.
15:00 N.D. 10 94 9 SSE 39 101,6 N.D.
14:00 N.D. 9 95 8 SE 24 101,8 N.D.
13:00 N.D. 9 93 8 SSE 23 102,0 N.D.
12:00 N.D. 9 94 8 SSE 25 102,1 N.D.
11:00 N.D. 9 94 8 SSE 24 102,2 N.D.
10:00 N.D. 9 93 8 SSE 27 102,3 N.D.
9:00 N.D. 9 90 7 SSE 26 102,4 N.D.
8:00 N.D. 9 88 7 SSE 21 102,4 N.D.
7:00 N.D. 4   96 4 calme 102,4 N.D.
6:00 N.D. 4   95 3 calme 102,3 N.D.
5:00 N.D. 4   94 3 NNO 7 102,4 N.D.
4:00 N.D. 5 92 3 ENE 2 102,4 N.D.
3:00 N.D. 5 90 4 NNE 5 102,4 N.D.
2:00 N.D. 5 90 4 OSO 6 102,3 N.D.
1:00 N.D. 5 89 3 calme 102,3 N.D.
0:00 N.D. 5 90 3 NO 4 102,4 N.D.
23 novembre 2014
23:00 N.D. 5 91 3 calme 102,3 N.D.
22:00 N.D. 4   92 3 NO 5 102,3 N.D.
21:00 N.D. 4   91 3 O 5 102,2 N.D.
20:00 N.D. 5 87 3 calme 102,1 N.D.
19:00 N.D. 7 83 4 O 5 102,1 N.D.
18:00 N.D. 7 78 4 ONO 4 102,1 N.D.
N.D. non disponible
↑ température la plus haute
↓ température la plus basse

Si vous désirez plus de données historiques sur les conditions météo, s.v.p. visitez Données climatologiques en ligne.

Date de modification :